Location: Warwick
(41.7000°N, 71.4170°W)
Time: 05:35:07
(UTC-04:00)

BREEZE-M DEB (TANK) - Visible Passes

Search period start: 26 April 2018 00:00
Search period end: 06 May 2018 00:00
Orbit: 286 x 15826 km, 49.5° (Epoch: 25 April)

Date Brightness Start Highest point End Pass type
(mag) Time Alt. Az. Time Alt. Az. Time Alt. Az.
26 Apr 8.9 21:11:29 10° WNW 21:51:34 62° WSW 23:52:23 17° S visible
27 Apr 8.9 21:09:46 10° WNW 21:49:41 60° WSW 23:53:27 15° S visible
28 Apr 8.9 21:08:01 10° WNW 21:47:46 59° WSW 23:54:32 13° S visible
29 Apr 8.9 21:06:14 10° WNW 21:45:49 58° WSW 23:55:39 11° S visible
30 Apr 9.0 21:04:27 10° WNW 21:43:51 57° WSW 23:53:43 10° S visible
01 May 9.0 21:02:39 10° WNW 21:41:51 56° WSW 23:50:38 10° S visible
02 May 9.0 21:00:49 10° WNW 21:39:49 55° WSW 23:47:29 10° S visible
03 May 9.0 20:58:57 10° WNW 21:37:47 54° WSW 23:44:16 10° SSW visible
04 May 9.0 20:57:05 10° WNW 21:35:41 53° WSW 23:40:58 10° SSW visible
05 May 9.1 20:55:11 10° WNW 21:33:35 52° WSW 23:37:36 10° SSW visible
